Location: Aulon
(43.1898°N, 0.8198°E)
Time: 16:35:03
(UTC+00:00)

Daily predictions for brighter satellites

Satellite Brightness Start Highest point End
(mag) Time Altitude Azimuth Time Altitude Azimuth Time Altitude Azimuth
SMAP 3.0 17:13:35 10° SSE 17:18:13 77° ENE 17:22:53 10° N
IRS-1C Rocket 4.1 17:14:15 10° SSE 17:19:29 77° ENE 17:24:45 10° N
H-2A R/B 2.7 17:15:54 10° SSE 17:19:43 81° ENE 17:23:36 10° N
SJ 16-02 3.2 17:16:29 10° SW 17:20:20 29° WNW 17:24:13 10° N
Starlink A 2.7 17:17:28 10° SW 17:20:26 86° NW 17:23:25 10° NE
Starlink R 2.7 17:18:50 10° SW 17:21:48 84° NNW 17:24:46 10° NE
Cosmos 2360 Rocket 3.1 17:17:01 10° NNW 17:22:33 56° WSW 17:28:01 10° S
Starlink K 2.8 17:20:09 10° WSW 17:23:06 81° NW 17:26:06 10° NE
Cosmos 2228 4.2 17:19:45 10° NNW 17:23:54 47° W 17:28:01 10° SSW
Starlink M 2.8 17:21:26 10° WSW 17:24:24 79° NW 17:27:23 10° NE
Cosmos 2150 Rocket 4.0 17:19:51 10° S 17:25:00 71° ESE 17:30:08 10° NNE
Cosmos 2227 Rocket 3.8 17:25:11 10° SE 17:28:15 15° E 17:31:20 10° ENE
CZ-4 R/B 2.5 17:25:32 10° ESE 17:28:44 23° ENE 17:32:01 10° NNE
COSMOS 2428 2.8 17:23:24 10° NNW 17:29:05 57° ENE 17:34:43 10° SE
Cosmos 2219 Rocket 2.2 17:25:16 10° NNW 17:30:54 60° ENE 17:36:29 10° SE
SKYMED 2 4.3 17:29:23 10° NNE 17:33:22 34° E 17:37:18 10° SSE
Cosmos 2184 Rocket 4.0 17:27:51 10° S 17:34:02 82° E 17:40:14 10° N
USA 234 3.8 17:27:40 10° SE 17:34:08 65° SW 17:40:39 10° NW
Cosmos 2154 Rocket 4.1 17:35:45 10° S 17:41:54 60° E 17:48:03 10° NNE
Cosmos 1125 Rocket 3.6 17:39:05 10° S 17:44:09 58° ESE 17:49:17 10° NNE
Cosmos 1812 Rocket 3.8 17:41:58 10° N 17:46:18 47° ENE 17:50:37 10° SSE
USA 116 4.5 17:50:27 16° ENE 17:51:54 21° E 17:54:22 10° SSE
YAOGAN 1 3.1 17:49:16 10° SE 17:53:10 35° ENE 17:57:07 10° N
Envisat 3.2 17:51:57 10° S 17:57:01 79° WSW 18:02:08 10° NNW
Cosmos 1610 Rocket 4.4 17:52:14 10° S 17:58:20 85° E 18:04:31 10° N
Cosmos 1269 Rocket 4.3 17:56:22 10° N 18:01:25 43° ENE 18:06:24 10° SE
CSL-04 Debris 4.3 18:00:32 10° SE 18:05:41 49° ENE 18:10:53 10° N
Cosmos 1048 Rocket 4.1 18:01:07 10° NNW 18:06:16 78° WSW 18:11:22 10° SSE
Cosmos-2242 3.7 18:03:23 10° NNE 18:07:14 30° ENE 18:11:02 10° SE
CZ-4C R/B 2.9 18:00:55 10° NW 18:08:12 76° NE 18:16:29 10° SE
Cosmos 1295 Rocket 4.5 18:02:58 10° S 18:09:16 74° E 18:15:35 10° NNE
CZ-2D R/B 3.8 18:05:56 10° SE 18:09:24 34° ENE 18:12:55 10° N
Starlink AQ 4.2 18:09:26 10° W 18:12:02 29° NNW 18:13:16 21° NNE
Cosmos 1602 Rocket 3.8 18:07:46 10° SSW 18:12:09 72° W 18:16:33 10° N
ISS -1.6 18:10:44 10° SSE 18:12:26 14° SE 18:12:26 14° SE
Starlink AR 4.2 18:11:04 10° W 18:13:10 23° NNW 18:13:57 20° N
Starlink AS 4.2 18:11:59 10° W 18:14:34 28° NNW 18:15:42 21° NNE
Starlink BA 4.2 18:12:13 10° W 18:14:47 28° NNW 18:15:54 21° NNE
Starlink AU 4.2 18:12:25 10° W 18:14:59 28° NNW 18:16:06 21° NNE
Meteor 2-10 Rocket 4.1 18:10:11 10° N 18:15:02 33° ENE 18:19:42 10° SE
Starlink AT 4.3 18:12:39 10° W 18:15:13 28° NNW 18:16:20 21° NNE
Starlink BB 4.3 18:12:52 10° W 18:15:27 27° NNW 18:16:32 21° NNE
Starlink BC 4.3 18:13:06 10° W 18:15:40 27° NNW 18:16:45 21° NNE
Starlink BK 4.3 18:13:19 10° W 18:15:53 27° NNW 18:16:58 21° NNE
ATLAS CENTAUR R/B 4.4 18:10:24 10° W 18:15:54 48° NNW 18:28:23 14° NE
Starlink AY 4.3 18:13:33 10° W 18:16:07 27° NNW 18:17:11 21° NNE
Starlink AW 4.3 18:13:46 10° W 18:16:20 27° NNW 18:17:23 21° NNE
Starlink BJ 4.3 18:13:58 10° W 18:16:31 27° NNW 18:17:34 21° NNE
Starlink AV 4.3 18:14:11 10° W 18:16:44 27° NNW 18:17:47 21° NNE
Starlink BD 4.3 18:14:25 10° W 18:16:57 27° NNW 18:18:00 21° NNE
Starlink BE 4.3 18:14:36 10° W 18:17:10 27° NNW 18:18:13 21° NNE
Starlink BM 4.3 18:14:51 10° W 18:17:24 27° NNW 18:18:25 21° N
Starlink AX 4.3 18:15:05 10° W 18:17:37 27° NNW 18:18:38 21° N
Starlink BH 4.3 18:15:19 10° W 18:17:51 27° NNW 18:18:51 22° N
Cosmos 2333 Rocket 3.0 18:12:22 10° NNW 18:17:57 56° WSW 18:23:28 10° S
Starlink AZ 4.3 18:15:32 10° W 18:18:04 27° NNW 18:19:03 22° N
Starlink BG 4.3 18:15:46 10° W 18:18:18 26° NNW 18:19:17 22° N
Starlink BF 4.3 18:15:58 10° W 18:18:30 26° NNW 18:19:29 22° N
Starlink BL 4.3 18:16:10 10° W 18:18:42 26° NNW 18:19:41 22° N
Starlink AH 4.3 18:16:24 10° W 18:18:56 26° NNW 18:19:53 22° N
Starlink AC 4.3 18:16:37 10° W 18:19:09 26° NNW 18:20:06 22° N
Starlink X 4.3 18:16:50 10° W 18:19:22 26° NNW 18:20:18 22° N
Cosmos 962 Rocket 4.4 18:13:26 10° S 18:19:30 74° E 18:25:39 10° NNE
Starlink AE 4.3 18:17:03 10° W 18:19:36 26° NNW 18:20:32 22° N
Starlink Z 4.3 18:17:17 10° W 18:19:49 26° NNW 18:20:44 22° N
Cosmos 2237 Rocket 2.2 18:14:24 10° NNW 18:19:58 56° ENE 18:25:28 10° SE
Starlink AK 4.3 18:17:31 10° W 18:20:02 26° NNW 18:20:57 22° N
Starlink AL 4.3 18:17:45 10° W 18:20:16 26° NNW 18:21:10 22° N
Starlink AD 4.3 18:17:57 10° W 18:20:28 26° NNW 18:21:22 22° N
Meteor 1-21 Rocket 4.2 18:15:07 10° S 18:20:34 61° E 18:26:09 10° NNE
Starlink Y 4.3 18:18:24 10° W 18:20:55 26° NNW 18:21:48 22° N
Starlink AG 4.3 18:18:38 10° W 18:21:08 26° NNW 18:22:00 22° N
Starlink W 4.4 18:18:49 10° W 18:21:21 26° NNW 18:22:13 22° N
COSMO-SKYMED 1 2.8 18:17:13 10° N 18:21:33 72° WNW 18:25:53 10° SSW
Starlink AJ 4.3 18:19:04 10° W 18:21:35 25° NNW 18:22:25 22° N
Starlink AM 4.4 18:19:30 10° W 18:22:00 25° NNW 18:22:50 22° N
Starlink AP 4.4 18:19:43 10° W 18:22:14 25° NNW 18:23:03 22° N
Cosmos 1461 4.1 18:18:02 10° NW 18:22:14 48° WSW 18:26:34 10° SSE
Starlink AA 4.4 18:19:57 10° W 18:22:27 25° NNW 18:23:16 22° N
Cosmos 1340 Rocket 3.0 18:18:34 10° NNW 18:22:30 73° W 18:26:27 10° S
Cosmos 1300 3.7 18:18:56 10° NNW 18:22:37 47° W 18:26:17 10° SSW
Starlink AF 4.4 18:20:11 10° W 18:22:41 25° NNW 18:23:30 22° N
Starlink AB 4.4 18:20:25 10° W 18:22:54 25° NNW 18:23:42 22° N
Starlink AN 4.4 18:20:37 10° W 18:23:07 25° NNW 18:23:54 22° N
Okean-O 3.8 18:19:08 10° S 18:23:22 45° W 18:27:39 10° NNW
Cosmos 1953 Rocket 4.1 18:19:23 10° SSE 18:23:29 38° E 18:25:10 27° NE
Nadezhda 3 Rocket 4.4 18:20:37 10° NNW 18:26:50 67° W 18:33:05 10° S
ADEOS Rocket 3.6 18:21:31 10° NNE 18:27:39 41° E 18:34:20 10° SSE
Cosmos 1758 Rocket 3.4 18:24:34 10° S 18:28:51 73° E 18:33:08 10° NNE
CSL-04 Rocket 3.6 18:30:00 10° SSE 18:35:28 87° ENE 18:41:02 10° NNW
ERBS 2.3 18:33:38 10° SSW 18:36:50 58° SE 18:36:50 58° SE
Cosmos 1727 Rocket 4.4 18:31:32 10° N 18:37:16 38° ENE 18:42:57 10° SE
Cosmos 1939 Rocket 2.6 18:34:15 10° SSE 18:38:07 77° ENE 18:42:03 10° N
Cosmos 1455 4.1 18:35:36 10° N 18:36:37 17° N 18:36:37 17° N
SL-16 R/B 2.8 18:34:44 10° N 18:39:51 33° NE 18:39:51 33° NE
Cosmos 44 4.1 18:36:16 10° S 18:39:36 28° SE 18:39:36 28° SE
Ariane Rocket 3.2 18:37:49 24° SE 18:40:25 44° ENE 18:45:13 10° N
Cosmos 2219 3.2 18:37:02 10° SSW 18:42:39 84° WNW 18:46:52 19° NNE
H-2A R/B 4.0 18:46:39 13° NNE 18:46:39 13° NNE 18:47:19 10° N
Cosmos 2341 Rocket 4.1 18:37:36 10° S 18:44:00 80° W 18:50:25 10° N
NOSS 0 Rocket 4.3 18:38:57 10° NNW 18:45:08 67° WSW 18:51:14 10° SSE
Cosmos 494 Rocket 4.4 18:40:29 10° NNW 18:45:32 62° WSW 18:50:34 10° S
ATLAS 5 CENTAUR R/B 4.2 18:43:51 10° WNW 18:46:09 14° NNW 18:48:35 10° N
SL-8 R/B 4.3 18:42:07 10° SSW 18:46:34 39° SE 18:46:59 38° SE
Cosmos 2082 4.0 18:41:54 10° S 18:47:06 41° ESE 18:47:23 41° E
SL-8 Rocket 3.9 18:43:26 10° S 18:49:45 83° E 18:56:05 10° N
Cosmos 1825 Rocket 3.9 18:50:48 10° SSW 18:55:08 65° W 18:58:40 15° N
Cosmos 2297 Rocket 2.1 18:53:57 10° SSW 18:59:36 88° WNW 19:02:20 32° NNE
Cosmos 1980 4.1 18:56:06 10° NNW 19:01:45 65° WSW 19:07:21 10° S
DELTA 2 R/B (1) 3.8 18:57:37 10° WSW 19:03:05 55° S 19:04:01 49° SE
CZ-4 R/B 3.4 19:00:08 10° SSW 19:03:38 29° W 19:07:13 10° NW
NOSS 2-1 (C) 4.4 19:03:18 10° NNW 19:08:48 78° NE 19:11:34 40° SE
Cosmos 2227 Rocket 2.2 19:05:54 10° SSW 19:11:33 78° WNW 19:13:40 40° NNE
NOSS 2-1 (D) 4.4 19:07:06 10° NW 19:12:38 82° NE 19:15:24 40° SE
SL-08 R/B 4.3 19:09:52 10° S 19:16:05 74° E 19:19:31 29° NNE
Cosmos 2218 Rocket 4.2 19:12:28 10° SSW 19:18:45 72° W 19:25:10 10° N
Atlas Centaur 2 4.2 19:22:20 10° SSW 19:24:53 16° S 19:24:53 16° S
FALCON 9 R/B 4.2 19:22:15 10° SW 19:32:07 24° S 19:33:10 23° SSE
Cosmos 2237 Rocket 4.4 19:59:24 10° NW 20:03:33 21° W 20:07:41 10° SSW
ADEOS Rocket 4.4 20:07:12 10° N 20:13:04 39° WNW 20:19:30 10° SW
SL-16 R/B 3.9 20:18:46 10° NW 20:21:47 28° WNW 20:21:47 28° WNW
